This is the latest recevied weather packets stored in our database for station/object WA6TJQ. If no packets are shown the sender has not sent any weather packets the latest 10 day(s).
| Time | Temp. | Humidity | Pressure | Rain* | Wind** | Luminosity | Snow |
|---|---|---|---|---|---|---|---|
| 1778115878 | 14.44° C | 62% | 1012.4 hPa | 0 mm | - | - | - |
| 1778115578 | 14.44° C | 62% | 1012.4 hPa | 0 mm | - | - | - |
| 1778115278 | 14.44° C | 59% | 1012.4 hPa | 0 mm | - | - | - |
| 1778114978 | 14.44° C | 62% | 1012.4 hPa | 0 mm | - | - | - |
| 1778114678 | 14.44° C | 61% | 1012.4 hPa | 0 mm | - | - | - |
| 1778114378 | 14.44° C | 61% | 1012.3 hPa | 0 mm | - | - | - |
| 1778114078 | 14.44° C | 60% | 1012.5 hPa | 0 mm | - | - | - |
| 1778113778 | 14.44° C | 59% | 1012.5 hPa | 0 mm | - | - | - |
| 1778113478 | 14.44° C | 59% | 1012.4 hPa | 0 mm | - | - | - |
| 1778113178 | 15° C | 59% | 1012.3 hPa | 0 mm | - | - | - |
| 1778112878 | 15° C | 58% | 1012.4 hPa | 0 mm | - | - | - |
| 1778112578 | 15° C | 55% | 1012.3 hPa | 0 mm | - | - | - |
| 1778112277 | 15° C | 58% | 1012.2 hPa | 0 mm | - | - | - |
| 1778111978 | 15.56° C | 58% | 1012.1 hPa | 0 mm | - | - | - |
| 1778111677 | 15.56° C | 57% | 1012.3 hPa | 0 mm | - | - | - |
| 1778111377 | 15.56° C | 57% | 1012.3 hPa | 0 mm | - | - | - |
| 1778111077 | 15.56° C | 55% | 1012.2 hPa | 0 mm | - | - | - |
| 1778110777 | 15.56° C | 54% | 1012.1 hPa | 0 mm | - | - | - |
| 1778110477 | 15.56° C | 55% | 1012.2 hPa | 0 mm | - | - | - |
| 1778110177 | 15.56° C | 55% | 1012.3 hPa | 0 mm | - | - | - |
| 1778109877 | 16.11° C | 54% | 1012.4 hPa | 0 mm | - | - | - |
| 1778109577 | 16.11° C | 55% | 1012.3 hPa | 0 mm | - | - | - |
| 1778109277 | 16.11° C | 55% | 1012.3 hPa | 0 mm | - | - | - |
| 1778108977 | 16.67° C | 54% | 1012.2 hPa | 0 mm | - | - | - |
| 1778108677 | 16.67° C | 51% | 1012.3 hPa | 0 mm | - | - | - |
* Rain latest hour (hover to see other rain measurements)
** Current wind speed in m/s (hover to see current wind gust speed)